Regional Weather Roundup
Issued by NWS

Home | Current Version | Previous Version | Graphics & Text | Print | Product List | Glossary Off
Versions: 1 2 3 4 5 6 7 8 9 10 11 12 13 14 15 16 17 18 19 20 21 22 23 24 25 26 27 28 29 30 31 32 33 34 35 36 37 38 39 40 41 42 43 44 45 46 47 48 49 50

000
ASUS43 KMKX 232100
RWRWI

WISCONSIN REGIONAL WEATHER ROUNDUP
NATIONAL WEATHER SERVICE MILWAUKEE/SULLIVAN WI
400 PM CDT SAT SEP 23 2017

NOTE: "FAIR" INDICATES FEW OR NO CLOUDS BELOW 12,000 FEET WITH NO
SIGNIFICANT WEATHER AND/OR OBSTRUCTIONS TO VISIBILITY.

WIZ001-002-006>008-014>016-023>028-232200-
NORTHWEST WISCONSIN

CITY           SKY/WX    TMP DP  RH WIND       PRES   REMARKS
SUPERIOR ARPT  CLOUDY    82  73  72 W5        29.92S HX  88
ASHLAND        MOSUNNY   90  71  53 S14G23    29.93S HX  96
HAYWARD        SUNNY     85  69  58 S15       29.97S HX  89
SIREN          CLOUDY    85  69  58 SW10      29.95S HX  89
CUMBERLAND     MOSUNNY   82  68  61 S13       29.98S HX  85
RICE LAKE      SUNNY     87  67  51 S13       29.98F HX  90
CHETEK         PTSUNNY   84  71  63 S7        29.97F HX  89
LADYSMITH      MOSUNNY   86  69  56 S10       30.00F HX  90
EAU CLAIRE     NOT AVBL
MENOMONIE      MOSUNNY   88  68  50 S10       29.96F HX  91
NEW RICHMOND   MOSUNNY   86  67  54 SW12      29.96S HX  88
OSCEOLA        MOSUNNY   87  69  53 S12       29.97F HX  91
$$

WIZ003>005-009-010-017-018-232200-
NORTH CENTRAL WISCONSIN

CITY           SKY/WX    TMP DP  RH WIND       PRES   REMARKS
MANITOWISH WTR NOT AVBL
ARBOR VITAE    SUNNY     85  69  58 S13       30.01F HX  88
WOODRUFF       SUNNY     85  69  58 S13       30.01F HX  88
RHINELANDER    SUNNY     84  66  54 S14       30.03F HX  86
EAGLE RIVER    MOSUNNY   85  64  48 SW10G17   30.02S HX  86
LAND O LAKES   MOSUNNY   85  66  52 SW9       30.03S HX  88
PHILLIPS       CLOUDY    84  70  62 S8        30.00S HX  88
TOMAHAWK       SUNNY     86  63  46 SW5       30.03S HX  86
MEDFORD        MOSUNNY   84  65  52 S12       30.02F HX  86
MERRILL        MOSUNNY   87  66  49 SW12      30.02F HX  89
$$

WIZ029-030-035-036-043>047-232200-
CENTRAL WISCONSIN

CITY           SKY/WX    TMP DP  RH WIND       PRES   REMARKS
WAUSAU         LGT RAIN  86  65  49 SW10      30.01F HX  88
MOSINEE        PTSUNNY   86  66  51 S13       30.03F HX  88
MARSHFIELD     MOSUNNY   87  64  46 SW13      30.02F HX  88
STEVENS POINT  PTSUNNY   85  64  50 S13       30.03F HX  86
WAUPACA        SUNNY     91  65  41 S8        30.02F HX  93
WAUTOMA        MOSUNNY   91  65  41 S10       30.02F HX  93
WISC RAPIDS    SUNNY     89  67  47 SW8       30.02F HX  92
CAMP DOUGLAS   NOT AVBL
$$

WIZ011>013-019>022-031-037>040-048>050-232200-
NORTHEAST WISCONSIN

CITY           SKY/WX    TMP DP  RH WIND       PRES   REMARKS
ANTIGO         MOSUNNY   85  66  53 SW14      30.05F HX  87
SHAWANO        MOSUNNY   89  65  44 SW5       30.01F HX  91
OCONTO         MOSUNNY   89  69  52 S7        30.01F HX  93
STURGEON BAY   MOSUNNY   87  69  54 S10       30.03F HX  91
GREEN BAY      SUNNY     90  66  45 S7        30.02F HX  92
MANITOWOC      SUNNY     83  68  60 S13       30.05F HX  86
APPLETON       MOSUNNY   90  55  31 S8        30.02F HX  88
CLINTONVILLE   MOSUNNY   90  63  40 SW9       30.02F HX  90
OSHKOSH        SUNNY     88  66  48 S10G18    30.02F HX  90
$$

WIZ032>034-041-042-053>061-232200-
SOUTHWEST WISCONSIN

CITY           SKY/WX    TMP DP  RH WIND       PRES   REMARKS
LA CROSSE      MOSUNNY   94  65  38 S12       29.96F HX  96
SPARTA         SUNNY     90  65  43 SW8       30.00F HX  91
VIROQUA        MOSUNNY   89  65  44 S9        30.03F HX  91
BOSCOBEL       SUNNY     93  63  36 S9        29.99F HX  94
PRAIRIE DU CHI SUNNY     92  57  30 SE6       29.98F HX  91
PLATTEVILLE    SUNNY     91  63  38 S9G16     30.03F HX  92
$$

WIZ056-057-062-063-064-067-068-232200-
SOUTH CENTRAL WISCONSIN

CITY           SKY/WX    TMP DP  RH WIND       PRES   REMARKS
REEDSBURG      MOSUNNY   92  65  40 S8        30.01F HX  94
BARABOO/DELLS  NOT AVBL
LONE ROCK      NOT AVBL
MINERAL POINT  SUNNY     91  55  29 SW12      30.04S HX  89
MADISON        MOSUNNY   91  62  37 S13       30.02F HX  91
MIDDLETON      SUNNY     93  55  27 S9        30.03F HX  91
WATERTOWN      SUNNY     91  63  39 SE5       30.04F HX  92
MONROE         SUNNY     91  55  29 S10       30.05F HX  89
JANESVILLE     PTSUNNY   93  59  31 SE10      30.03F HX  92
$$

WIZ051-052-058>065-066-070>072-232200-
SOUTHEAST WISCONSIN

CITY           SKY/WX    TMP DP  RH WIND       PRES   REMARKS
MILWAUKEE      MOSUNNY   87  67  51 SE14      30.04F HX  90
WAUKESHA       MOSUNNY   90  61  37 S6        30.06F HX  89
MILWAUKEE/TIMM MOSUNNY   90  59  35 E9        30.05F HX  89
RACINE         SUNNY     86  67  52 SE10      30.07F HX  89
BURLINGTON     SUNNY     93  64  37 S5        30.04F HX  95
KENOSHA        SUNNY     90  65  43 SE14      30.05F HX  92
FOND DU LAC    SUNNY     89  62  40 S9        30.04F HX  89
SHEBOYGAN      SUNNY     87  70  56 S12       30.05F HX  92
WEST BEND        N/A     88  64  45 SE8       30.06S HX  89
JUNEAU         SUNNY     89  65  46 S7        30.06F HX  90
$$

LSZ147-162-232200-
LAKE SUPERIOR

STATION/POSITION TIME  TEMP    WIND        PRES    WAVE
                       AIR SEA DIR/SP/G            HT/PER
                 (UTC) (F)     (DEG/KT/KT) (MB)    (FT/S)
W MID LAKE BUOY  1950   62 55  290/  6/ 10 1013.0S   1
DEVILS ISLAND    2000   76     240/  2/  3 1012.9S
PORT WING        2040   91     280/  1/  2 1013.2S
SAXON HARBOR     2030   88     200/  7/ 10 1012.9S
$$

LMZ867-665-643>646-232200-
LAKE MICHIGAN

STATION/POSITION TIME  TEMP    WIND        PRES    WAVE
                       AIR SEA DIR/SP/G            HT/PER
                 (UTC) (F)     (DEG/KT/KT) (MB)    (FT/S)
S GREEN BAY BUOY 2000   77 70  210/  6/  6 1016.7
N MID LAKE BUOY  1950   69 67  190/ 14/ 16 1017.6F   2/ 4
NORTHPORT PIER   2040   77     140/  5/ 10 1016.3F
KEWAUNEE LAKESHO 2030   68     180/ 11/ 12 1016.7F
SHEBOYGAN LAKESH 2000   72     170/ 13/ 13 1017.3F
PORT WASHINGTON  2030   80     180/  4/  5 1018.6F
ATWATER BUOY     1939   72 68  150/  8/ 10 1018.2F
MILWAUKEE LAKESH 2040   69     140/  7/  8   N/A
S MID LAKE BUOY  1950   74 72  120/  6/  6 1018.6F   0
KENOSHA   LAKESH 2000   76     170/  7/  9 1017.6
$$

TC  - TEMPERATURE IN CELSIUS
VSB - VISIBILITY IN STATUTE MILES
WCI - WIND CHILL INDEX
HX  - HEAT INDEX





USA.gov is the U.S. government's official web portal to all federal, state and local government web resources and services.